DIAMANT DEB, 2684

Orbit data source: Space-Track

DIAMANT DEB, 2684 is space debris in LEO originally from a launch on Wed, 15 Feb 1967 UTC launched from the Hamma Guira Space Track Range (HGSTR). Debris objects in space refer to the collection of defunct objects orbiting the Earth. Examples of debris include non-operational satellites, rocket bodies, and fragments generated from explosions, collisions, or faulty payload assembly.

Loading next visibility...
Identifier
2684, 1967-014C
Orbit
LEO
Country
Flag of FRFR
Related business
Manufacturer
Unknown
Mission
Spacecraft
Bus & Motor
Unknown
Mass
Unknown
Launch date (UTC)
1967-02-15 (60 years ago)
Launch vehicle
Unknown
Launch site
Hamma Guira Space Track Range (HGSTR)
Object type
Payload
Rocket body
Debris
Shape & HBR
Unknown shape, 0.1 m
Radar Cross Section
Medium (>0.1 m² and <1 m²)

Expand to show TLE details & history
Last TLE update: 14 hours ago

TLE from 14 hours ago
0 DIAMANT DEB
1 02684U 67014C   26254.25423638  .00002756  00000-0  65787-3 0  9996
2 02684  39.9588 317.8089 0435730 234.4354 121.5047 14.09765791953126
Epoch: 2026-09-11T06:06Z
TLE epoch observation values (Epoch: 2026-09-11T06:06:06.023Z)
Latitude
-0.00001°
Longitude
-123.99644°
Altitude
1,034.071 km
Speed
7.248 km/s
True Right ascension
21h 11m 14s
True Declination
0° 00' 00"
Sunlit
Object was in full shadow at epoch
Visualization orbit readout
Latitude
Unknown
Longitude
Unknown
Altitude
Unknown
Speed
Unknown
Apparent Right ascension
Unknown
Apparent Declination
Unknown
Sunlit
N/A
Visualization observer readout
Local Sidereal Time
12:24:45
Azimuth
Unknown
Elevation
Unknown
Doppler factor
Unknown
Orbital elements
Apogee altitude
1,178.001 km
Perigee altitude
547.008 km
Semi-major axis
7,240.642 km
Eccentricity
0.04357
Inclination
39.9588°
RAAN
317.8089°
Arg. of periapsis
234.4354°
True anomaly
125.64028°
Mean anomaly
121.5047°
Eccentric anomaly
123.5845°
Mean motion
3.52272 °/min
Orbital period
102.19 mins
BSTAR
0.00065787
Loading maneuver chart data...
Computing Atmospheric mass density...
Loading historical data...
Loading historical data...
Loading historical data...
Loading historical data...
Loading historical data...
Loading historical data...
Loading historical data...

Documentation

Showing up to 5 results
|